Tracking 20942 objects as of 11-Jul-2020
HD Live streaming from Space Station
objects crossing your sky now

SL-12 DEB

Track SL-12 DEB now!
10-day predictions


NORAD ID: 42981
Int'l Code: 2010-041W
Perigee: 474.5 km
Apogee: 17,825.5 km
Inclination: 65.5 °
Period: 320.7 minutes
Semi major axis: 15520 km
RCS: Unknown
Launch date: September 2, 2010
Source: Commonwealth of Independent States (former USSR) (CIS)
Launch site: TYURATAM MISSILE AND SPACE COMPLEX (TTMTR)

Note: This is SATELLITE DEBRIS
aabbcc
Your satellite tracking list
Your tracking list is empty




NASA's NSSDC Master Catalog

Two Line Element Set (TLE):
1 42981U 10041W   20193.00016837  .00000306  00000-0  48792-3 0  9992
2 42981  65.4557 147.3189 5589535  12.4062   6.7237  4.48978081 46314
Source of the keplerian elements: AFSPC